When you browse on this site, cookies collect data to enhance your experience and personalize the content and advertising you see.
Visit our Privacy Policy to learn more. By continuing to use the site, you agree to this use of cookies and data.

Météo par heure à Vereskovo

Ce jour, 8 Août, Samedi

Heure Température Précipitation Vent Pression Humidité
00:00 +19°C° 0 mm 2 m/s 754 mmHg 89%
01:00 +19°C° 0 mm 2 m/s 754 mmHg 91%
02:00 +19°C° 0 mm 1 m/s 755 mmHg 91%
03:00 +19°C° 0 mm 1 m/s 755 mmHg 92%
04:00 +19°C° 0 mm 1 m/s 754 mmHg 93%
05:00 +18°C° 0 mm 1 m/s 754 mmHg 93%
06:00 +20°C° 0 mm 1 m/s 754 mmHg 88%
07:00 +22°C° 0 mm 1 m/s 754 mmHg 82%
08:00 +22°C° 0 mm 0 m/s 755 mmHg 76%
09:00 +25°C° 0.1 mm 1 m/s 754 mmHg 71%
10:00 +26°C° 0.1 mm 1 m/s 754 mmHg 65%
11:00 +28°C° 0.1 mm 1 m/s 754 mmHg 59%
12:00 +28°C° 0 mm 2 m/s 754 mmHg 57%
13:00 +28°C° 0 mm 2 m/s 753 mmHg 56%
14:00 +29°C° 0 mm 2 m/s 753 mmHg 54%
15:00 +28°C° 0.5 mm 2 m/s 753 mmHg 58%
16:00 +28°C° 0.5 mm 2 m/s 752 mmHg 61%
17:00 +27°C° 0.5 mm 2 m/s 752 mmHg 64%
18:00 +26°C° 0.3 mm 1 m/s 752 mmHg 70%
19:00 +24°C° 0.3 mm 1 m/s 752 mmHg 76%
20:00 +22°C° 0.3 mm 1 m/s 751 mmHg 82%
21:00 +22°C° 0 mm 1 m/s 751 mmHg 84%
22:00 +21°C° 0 mm 1 m/s 751 mmHg 87%
23:00 +20°C° 0 mm 1 m/s 751 mmHg 90%

Demain, 9 Août, Dimanche

Heure Température Précipitation Vent Pression Humidité
00:00 +20°C° 0 mm 1 m/s 751 mmHg 90%
01:00 +19°C° 0 mm 1 m/s 751 mmHg 91%
02:00 +19°C° 0 mm 1 m/s 751 mmHg 92%
03:00 +19°C° 0 mm 1 m/s 751 mmHg 93%
04:00 +18°C° 0 mm 1 m/s 751 mmHg 93%
05:00 +18°C° 0 mm 1 m/s 751 mmHg 93%
06:00 +20°C° 0 mm 1 m/s 751 mmHg 89%
07:00 +21°C° 0 mm 1 m/s 751 mmHg 84%
08:00 +23°C° 0 mm 1 m/s 751 mmHg 80%
09:00 +24°C° 0.1 mm 1 m/s 751 mmHg 74%
10:00 +25°C° 0.1 mm 1 m/s 751 mmHg 68%
11:00 +27°C° 0.1 mm 2 m/s 751 mmHg 62%
12:00 +27°C° 0 mm 2 m/s 750 mmHg 60%
13:00 +28°C° 0 mm 1 m/s 750 mmHg 57%
14:00 +28°C° 0 mm 1 m/s 750 mmHg 55%
15:00 +28°C° 0.5 mm 2 m/s 750 mmHg 59%
16:00 +27°C° 0.5 mm 2 m/s 749 mmHg 64%
17:00 +26°C° 0.5 mm 2 m/s 749 mmHg 68%
18:00 +25°C° 0.2 mm 2 m/s 749 mmHg 74%
19:00 +23°C° 0.2 mm 1 m/s 749 mmHg 80%
20:00 +22°C° 0.2 mm 1 m/s 749 mmHg 86%
21:00 +21°C° 0 mm 1 m/s 749 mmHg 88%
22:00 +20°C° 0 mm 1 m/s 749 mmHg 89%
23:00 +20°C° 0 mm 1 m/s 749 mmHg 91%

Après-demain, 10 Août, Lundi

Heure Température Précipitation Vent Pression Humidité
00:00 +19°C° 0.1 mm 1 m/s 749 mmHg 92%
01:00 +19°C° 0.1 mm 1 m/s 749 mmHg 92%
02:00 +19°C° 0.1 mm 1 m/s 749 mmHg 93%
03:00 +18°C° 0.2 mm 1 m/s 749 mmHg 93%
04:00 +18°C° 0.2 mm 1 m/s 749 mmHg 93%
05:00 +18°C° 0.2 mm 1 m/s 749 mmHg 93%
06:00 +19°C° 0 mm 1 m/s 749 mmHg 90%
07:00 +21°C° 0 mm 1 m/s 749 mmHg 86%
08:00 +22°C° 0 mm 1 m/s 749 mmHg 82%
09:00 +24°C° 0.3 mm 1 m/s 749 mmHg 75%
10:00 +25°C° 0.3 mm 2 m/s 749 mmHg 69%
11:00 +27°C° 0.3 mm 2 m/s 749 mmHg 62%
12:00 +27°C° 0.4 mm 2 m/s 749 mmHg 59%
13:00 +28°C° 0.4 mm 2 m/s 749 mmHg 57%
14:00 +28°C° 0.4 mm 3 m/s 749 mmHg 54%
15:00 +28°C° 0.2 mm 3 m/s 748 mmHg 55%
16:00 +28°C° 0.2 mm 2 m/s 748 mmHg 57%
17:00 +28°C° 0.2 mm 2 m/s 748 mmHg 58%
18:00 +26°C° 0.2 mm 2 m/s 748 mmHg 66%
19:00 +24°C° 0.2 mm 2 m/s 748 mmHg 74%
20:00 +21°C° 0.2 mm 2 m/s 748 mmHg 82%
21:00 +20°C° 0 mm 2 m/s 748 mmHg 84%
22:00 +19°C° 0 mm 2 m/s 749 mmHg 86%
23:00 +19°C° 0 mm 2 m/s 749 mmHg 88%

11 Août, Mardi

Heure Température Précipitation Vent Pression Humidité
00:00 +18°C° 0 mm 2 m/s 749 mmHg 88%
01:00 +19°C° 0 mm 1 m/s 749 mmHg 89%
02:00 +18°C° 0 mm 1 m/s 749 mmHg 89%
03:00 +18°C° 0 mm 1 m/s 749 mmHg 91%
04:00 +18°C° 0 mm 1 m/s 749 mmHg 92%
05:00 +16°C° 0 mm 2 m/s 749 mmHg 93%
06:00 +17°C° 0 mm 2 m/s 749 mmHg 90%
07:00 +18°C° 0 mm 2 m/s 749 mmHg 86%
08:00 +19°C° 0 mm 3 m/s 749 mmHg 83%
09:00 +20°C° 0 mm 3 m/s 749 mmHg 76%
10:00 +22°C° 0 mm 3 m/s 750 mmHg 69%
11:00 +23°C° 0 mm 4 m/s 750 mmHg 62%
12:00 +23°C° 0 mm 4 m/s 750 mmHg 60%
13:00 +23°C° 0 mm 4 m/s 750 mmHg 57%
14:00 +25°C° 0 mm 4 m/s 750 mmHg 55%
15:00 +23°C° 0 mm 4 m/s 750 mmHg 56%
16:00 +22°C° 0 mm 4 m/s 750 mmHg 58%
17:00 +22°C° 0 mm 4 m/s 750 mmHg 59%
18:00 +20°C° 0 mm 4 m/s 750 mmHg 65%
19:00 +18°C° 0 mm 3 m/s 750 mmHg 71%
20:00 +16°C° 0 mm 3 m/s 750 mmHg 76%
21:00 +16°C° 0 mm 3 m/s 750 mmHg 78%
22:00 +15°C° 0 mm 2 m/s 751 mmHg 80%
23:00 +14°C° 0 mm 2 m/s 751 mmHg 82%

12 Août, Mercredi

Heure Température Précipitation Vent Pression Humidité
00:00 +13°C° 0 mm 2 m/s 751 mmHg 84%
01:00 +12°C° 0 mm 2 m/s 751 mmHg 86%
02:00 +12°C° 0 mm 2 m/s 751 mmHg 88%
03:00 +10°C° 0 mm 2 m/s 751 mmHg 90%
04:00 +10°C° 0 mm 2 m/s 752 mmHg 92%
05:00 +9°C° 0 mm 2 m/s 752 mmHg 93%
06:00 +12°C° 0 mm 2 m/s 752 mmHg 86%
07:00 +14°C° 0 mm 2 m/s 752 mmHg 80%
08:00 +15°C° 0 mm 2 m/s 752 mmHg 73%
09:00 +17°C° 0 mm 2 m/s 752 mmHg 67%
10:00 +18°C° 0 mm 3 m/s 752 mmHg 61%
11:00 +19°C° 0 mm 3 m/s 753 mmHg 55%
12:00 +19°C° 0 mm 3 m/s 752 mmHg 55%
13:00 +19°C° 0 mm 3 m/s 752 mmHg 56%
14:00 +19°C° 0 mm 3 m/s 752 mmHg 57%
15:00 +19°C° 0 mm 3 m/s 752 mmHg 57%
16:00 +19°C° 0 mm 2 m/s 752 mmHg 57%
17:00 +19°C° 0 mm 2 m/s 752 mmHg 58%
18:00 +17°C° 0 mm 2 m/s 752 mmHg 64%
19:00 +15°C° 0 mm 1 m/s 752 mmHg 71%
20:00 +13°C° 0 mm 0 m/s 752 mmHg 78%
21:00 +12°C° 0 mm 0 m/s 752 mmHg 79%
22:00 +12°C° 0 mm 0 m/s 752 mmHg 81%
23:00 +11°C° 0 mm 0 m/s 752 mmHg 82%

13 Août, Jeudi

Heure Température Précipitation Vent Pression Humidité
00:00 +11°C° 0 mm 0 m/s 752 mmHg 84%
01:00 +10°C° 0 mm 0 m/s 752 mmHg 85%
02:00 +10°C° 0 mm 0 m/s 752 mmHg 86%
03:00 +10°C° 0 mm 0 m/s 752 mmHg 87%
04:00 +9°C° 0 mm 0 m/s 752 mmHg 88%
05:00 +9°C° 0 mm 0 m/s 752 mmHg 89%
06:00 +11°C° 0 mm 0 m/s 751 mmHg 83%
07:00 +13°C° 0 mm 0 m/s 751 mmHg 77%
08:00 +15°C° 0 mm 0 m/s 751 mmHg 70%
09:00 +18°C° 0 mm 1 m/s 751 mmHg 66%
10:00 +20°C° 0 mm 1 m/s 751 mmHg 62%
11:00 +21°C° 0 mm 1 m/s 751 mmHg 57%
12:00 +21°C° 0 mm 1 m/s 751 mmHg 57%
13:00 +21°C° 0 mm 1 m/s 750 mmHg 57%
14:00 +21°C° 0 mm 1 m/s 750 mmHg 57%
15:00 +21°C° 0 mm 1 m/s 750 mmHg 58%
16:00 +20°C° 0 mm 2 m/s 750 mmHg 59%
17:00 +20°C° 0 mm 2 m/s 750 mmHg 60%
18:00 +20°C° 0 mm 1 m/s 749 mmHg 66%
19:00 +18°C° 0 mm 1 m/s 749 mmHg 72%
20:00 +15°C° 0 mm 1 m/s 749 mmHg 79%
21:00 +15°C° 0 mm 1 m/s 749 mmHg 80%
22:00 +14°C° 0 mm 1 m/s 749 mmHg 82%
23:00 +14°C° 0 mm 2 m/s 749 mmHg 84%
Voir plus